Location: Saint-Usage
(47.1052°N, 5.2587°E)
Time: 10:26:09
(UTC+01:00)

NOAA 19 - Pass Details

Date: 29 November 2021
Orbit: 841 x 860 km, 99.2° (Epoch: 26 January)

Event Time Altitude Azimuth Distance (km) Brightness Sun altitude
Rises 07:22:22 0° 25° (NNE) 3,425 8.4 -6.8°
Reaches altitude 10° 07:25:07 10° 37° (NE) 2,488 7.8 -6.4°
Maximum altitude 07:29:44 27° 94° (E) 1,601 7.6 -5.6°
Drops below altitude 10° 07:34:19 10° 151° (SSE) 2,483 8.6 -4.9°
Sets 07:37:04 0° 163° (SSE) 3,417 9.1 -4.5°
